K2BIG Weather Reports


time (UTC)temp
C
wind
direction
speed
KPH
gust
KPH
rain 1hr
cm
rain 24hr
cm
rain mn
cm
humidity
%
barometer
mb
20260510180016 21 203 3.2 6.4 0.00 0.25 0.00 65 1012.4
20260510175515 21 248 4.8 8.0 0.00 0.28 0.00 66 1012.4
20260510175016 21 225 4.8 11.3 0.00 0.28 0.00 66 1012.5
20260510174516 21 225 3.2 8.0 0.00 0.28 0.00 68 1012.5
20260510174015 21 248 3.2 8.0 0.00 0.28 0.00 68 1012.5
20260510173516 21 225 3.2 8.0 0.00 0.30 0.00 68 1012.5
20260510173015 21 270 1.6 6.4 0.00 0.30 0.00 69 1012.5
20260510172516 21 270 3.2 8.0 0.00 0.30 0.00 66 1012.6
20260510172015 21 248 4.8 12.9 0.00 0.30 0.00 70 1012.5
20260510171516 21 225 4.8 11.3 0.00 0.33 0.00 68 1012.5
20260510171015 21 248 4.8 12.9 0.00 0.33 0.00 69 1012.4
20260510170515 21 225 4.8 11.3 0.00 0.33 0.00 69 1012.6
20260510170015 21 180 3.2 8.0 0.00 0.33 0.00 69 1012.7
20260510165515 21 248 3.2 9.7 0.00 0.33 0.00 67 1012.9
20260510165015 21 248 3.2 8.0 0.00 0.33 0.00 68 1012.8
20260510164516 21 203 4.8 8.0 0.00 0.33 0.00 71 1012.8
20260510164015 21 203 3.2 8.0 0.00 0.33 0.00 71 1012.8
20260510163515 21 203 4.8 17.7 0.00 0.33 0.00 68 1012.8
20260510163015 21 203 4.8 11.3 0.00 0.33 0.00 72 1012.7
20260510162515 21 248 4.8 14.5 0.00 0.33 0.00 71 1012.6
20260510162015 21 225 3.2 8.0 0.00 0.36 0.00 72 1012.6
20260510161515 21 203 4.8 9.7 0.00 0.36 0.00 74 1012.8
20260510161015 20 203 4.8 9.7 0.00 0.36 0.00 76 1012.8
20260510160515 20 180 4.8 12.9 0.00 0.36 0.00 73 1012.8
20260510160015 20 180 3.2 14.5 0.00 0.36 0.00 75 1012.9
20260510155515 20 225 4.8 9.7 0.00 0.38 0.00 76 1013.0
20260510155015 20 225 3.2 6.4 0.00 0.38 0.00 77 1013.0
20260510154515 20 225 4.8 11.3 0.00 0.38 0.00 76 1013.0
20260510154015 20 225 4.8 9.7 0.00 0.38 0.00 76 1013.0
20260510153515 20 180 6.4 17.7 0.00 0.38 0.00 73 1013.0
20260510153015 20 203 3.2 11.3 0.00 0.41 0.00 76 1013.0
20260510152515 19 225 4.8 12.9 0.00 0.41 0.00 77 1013.1
20260510152015 19 225 3.2 9.7 0.00 0.41 0.00 76 1013.0
20260510151515 19 225 6.4 19.3 0.00 0.41 0.00 75 1013.0
20260510151015 19 225 3.2 8.0 0.00 0.41 0.00 77 1013.0
20260510150515 19 203 3.2 9.7 0.00 0.41 0.00 76 1013.1
20260510150020 19 248 6.4 14.5 0.00 0.41 0.00 77 1013.1
20260510145515 19 225 6.4 16.1 0.00 0.41 0.00 77 1013.1
20260510145015 19 180 8.0 19.3 0.00 0.41 0.00 78 1013.0
20260510144515 19 135 4.8 11.3 0.00 0.41 0.00 78 1013.0
20260510144015 18 225 6.4 14.5 0.00 0.41 0.00 79 1013.0
20260510143515 18 225 3.2 12.9 0.00 0.41 0.00 84 1013.0
20260510143015 18 225 8.0 12.9 0.00 0.41 0.00 82 1013.0
20260510142515 17 203 6.4 16.1 0.00 0.41 0.00 83 1012.9
20260510142015 17 203 4.8 12.9 0.00 0.41 0.00 84 1012.8
20260510141515 17 158 4.8 17.7 0.00 0.41 0.00 85 1012.9
20260510141015 16 158 4.8 12.9 0.00 0.41 0.00 86 1012.9
20260510140515 16 180 3.2 9.7 0.00 0.41 0.00 87 1012.9
20260510140015 16 158 4.8 12.9 0.00 0.41 0.00 88 1012.8
20260510135515 16 158 4.8 11.3 0.00 0.41 0.00 90 1012.9
20260510135015 15 180 3.2 11.3 0.00 0.41 0.00 94 1012.9
20260510134515 15 203 4.8 11.3 0.00 0.41 0.00 95 1013.0
20260510134015 14 180 3.2 8.0 0.00 0.41 0.00 96 1012.9
20260510133515 14 203 3.2 8.0 0.00 0.41 0.00 97 1013.0
20260510133015 13 203 3.2 6.4 0.00 0.41 0.00 98 1013.2
20260510132515 13 203 1.6 9.7 0.00 0.41 0.00 99 1013.3
20260510132015 13 248 4.8 9.7 0.00 0.41 0.00 99 1013.3
20260510131515 13 248 1.6 6.4 0.00 0.41 0.00 99 1013.3
20260510131015 13 248 3.2 6.4 0.00 0.41 0.00 99 1013.3
20260510130515 13 203 1.6 6.4 0.00 0.43 0.00 100 1013.2
20260510130015 13 0.0 6.4 0.00 0.43 0.00 100 1013.0
20260510125515 13 203 1.6 6.4 0.00 0.43 0.00 100 1013.0
20260510125015 12 0.0 3.2 0.00 0.43 0.00 100 1013.0
20260510124515 12 0.0 3.2 0.00 0.43 0.00 99 1013.0
20260510124015 12 0.0 1.6 0.00 0.43 0.00 99 1013.0
20260510123515 11 0.0 0.0 0.00 0.43 0.00 99 1013.1
20260510123015 11 0.0 1.6 0.00 0.43 0.00 99 1013.0
20260510122515 11 0.0 1.6 0.00 0.43 0.00 99 1012.8
20260510122015 10 0.0 0.0 0.00 0.43 0.00 99 1012.8
20260510121515 10 0.0 0.0 0.00 0.43 0.00 99 1012.6
20260510121015 10 0.0 0.0 0.00 0.43 0.00 99 1012.6
20260510120515 10 0.0 0.0 0.00 0.43 0.00 99 1012.6
20260510120015 10 0.0 0.0 0.00 0.43 0.00 98 1012.6
20260510115515 10 0.0 0.0 0.00 0.43 0.00 98 1012.5
20260510115015 10 0.0 0.0 0.00 0.43 0.00 98 1012.4
20260510114515 10 0.0 0.0 0.00 0.43 0.00 99 1012.4
20260510114016 10 0.0 0.0 0.00 0.43 0.00 99 1012.4
20260510113516 10 0.0 0.0 0.00 0.43 0.00 99 1012.5
20260510113015 10 0.0 0.0 0.00 0.43 0.00 99 1012.4
20260510112515 9 0.0 0.0 0.00 0.43 0.00 98 1012.3
20260510112017 9 0.0 0.0 0.00 0.43 0.00 98 1012.3
20260510111517 9 0.0 0.0 0.00 0.43 0.00 98 1012.3
20260510111018 9 0.0 0.0 0.00 0.43 0.00 98 1012.1
20260510110517 9 0.0 0.0 0.00 0.43 0.00 99 1012.1
20260510110017 9 0.0 0.0 0.00 0.43 0.00 98 1012.0
20260510105517 9 0.0 0.0 0.00 0.43 0.00 98 1011.9
20260510105017 9 0.0 0.0 0.00 0.43 0.00 98 1011.8
20260510104517 8 0.0 0.0 0.00 0.43 0.00 98 1011.9
20260510104017 8 0.0 0.0 0.00 0.43 0.00 98 1011.9
20260510103517 8 0.0 0.0 0.00 0.43 0.00 98 1011.9
20260510103017 8 0.0 0.0 0.00 0.43 0.00 98 1011.7
20260510102517 8 0.0 0.0 0.00 0.43 0.00 98 1011.7
20260510102017 8 0.0 0.0 0.00 0.43 0.00 98 1011.7
20260510101517 8 0.0 0.0 0.00 0.43 0.00 98 1011.8
20260510101017 8 0.0 0.0 0.00 0.43 0.00 98 1011.7
20260510100516 8 0.0 0.0 0.00 0.43 0.00 98 1011.6
20260510100017 8 0.0 0.0 0.00 0.43 0.00 98 1011.5
20260510095517 8 0.0 0.0 0.00 0.43 0.00 98 1011.4
20260510095017 8 0.0 0.0 0.00 0.43 0.00 98 1011.4
20260510094517 8 0.0 0.0 0.00 0.43 0.00 98 1011.5
20260510094017 8 0.0 0.0 0.00 0.43 0.00 98 1011.4
20260510093517 8 0.0 1.6 0.00 0.43 0.00 98 1011.4
20260510093017 8 0.0 3.2 0.00 0.43 0.00 98 1011.3
20260510092517 8 0.0 0.0 0.00 0.43 0.00 98 1011.1
20260510092017 8 0.0 0.0 0.00 0.43 0.00 98 1010.9
20260510091517 8 0.0 0.0 0.00 0.43 0.00 98 1011.0
20260510091016 8 0.0 0.0 0.00 0.43 0.00 98 1011.3
20260510090516 8 0.0 0.0 0.00 0.43 0.00 98 1011.1
20260510090016 8 0.0 0.0 0.00 0.43 0.00 98 1010.9
20260510085516 8 0.0 0.0 0.00 0.43 0.00 98 1010.8
20260510085016 8 0.0 0.0 0.00 0.43 0.00 98 1011.0
20260510084516 8 0.0 0.0 0.00 0.43 0.00 98 1011.1
20260510084016 8 0.0 0.0 0.00 0.43 0.00 98 1011.2
20260510083516 8 0.0 1.6 0.00 0.43 0.00 98 1011.3
20260510083016 8 0.0 0.0 0.00 0.43 0.00 98 1011.4
20260510082516 8 0.0 1.6 0.00 0.43 0.00 98 1011.4
20260510082016 8 0.0 3.2 0.00 0.43 0.00 98 1011.3
20260510081516 8 0.0 0.0 0.00 0.43 0.00 98 1011.3
20260510081016 8 0.0 0.0 0.00 0.46 0.00 98 1011.5
20260510080516 8 0.0 0.0 0.00 0.46 0.00 98 1011.6
20260510080016 8 0.0 1.6 0.00 0.46 0.00 98 1011.6
20260510075516 8 0.0 0.0 0.00 0.46 0.00 98 1011.8
20260510075016 8 0.0 1.6 0.00 0.46 0.00 98 1011.8
20260510074516 8 0.0 4.8 0.00 0.46 0.00 98 1011.7
20260510074016 8 0.0 0.0 0.00 0.46 0.00 98 1011.8
20260510073516 8 0.0 0.0 0.00 0.46 0.00 98 1011.8
20260510073016 8 0.0 0.0 0.00 0.46 0.00 98 1011.8
20260510072516 8 0.0 0.0 0.00 0.46 0.00 98 1012.0
20260510072016 8 0.0 1.6 0.00 0.48 0.00 98 1012.0
20260510071516 8 0.0 1.6 0.00 0.48 0.00 98 1012.0
20260510071016 8 0.0 0.0 0.00 0.48 0.00 98 1012.0
20260510070516 8 0.0 0.0 0.00 0.51 0.00 98 1012.2
20260510070016 8 0.0 0.0 0.00 0.51 0.00 98 1012.1
20260510065516 8 0.0 0.0 0.00 0.51 0.00 98 1012.1
20260510065016 7 0.0 1.6 0.00 0.51 0.00 98 1012.1
20260510064516 7 0.0 1.6 0.00 0.51 0.00 98 1012.0
20260510064016 7 0.0 0.0 0.00 0.51 0.00 98 1011.6
20260510063516 7 0.0 0.0 0.00 0.51 0.00 98 1011.5
20260510063016 7 0.0 0.0 0.00 0.53 0.00 98 1011.6
20260510062516 7 0.0 0.0 0.00 0.53 0.00 98 1011.4
20260510062016 7 0.0 3.2 0.00 0.53 0.00 98 1011.5
20260510061516 7 0.0 1.6 0.00 0.53 0.00 98 1011.6
20260510061016 7 0.0 0.0 0.00 0.53 0.00 98 1011.7
20260510060516 6 0.0 0.0 0.00 0.53 0.00 98 1011.6
20260510060016 6 0.0 0.0 0.00 0.53 0.00 98 1011.6
20260510055516 6 0.0 0.0 0.00 0.53 0.00 97 1011.8
20260510055016 6 0.0 0.0 0.00 0.53 0.00 97 1011.7
20260510054516 6 0.0 0.0 0.00 0.53 0.00 97 1011.8
20260510054016 6 0.0 0.0 0.00 0.53 0.00 97 1011.7
20260510053516 6 0.0 0.0 0.00 0.53 0.00 97 1011.6
20260510053016 6 0.0 0.0 0.00 0.53 0.00 97 1011.5
20260510052516 6 0.0 0.0 0.00 0.53 0.00 97 1011.3
20260510052016 6 0.0 0.0 0.00 0.53 0.00 97 1011.1
20260510051516 6 0.0 0.0 0.00 0.53 0.00 97 1011.0
20260510051016 6 0.0 0.0 0.00 0.53 0.00 97 1011.0
20260510050516 6 0.0 0.0 0.00 0.53 0.00 97 1011.2
20260510050016 6 0.0 0.0 0.00 0.53 0.00 97 1011.1
20260510045516 6 0.0 0.0 0.00 0.53 0.00 97 1011.3
20260510045016 6 0.0 0.0 0.00 0.53 0.00 96 1011.4
20260510044516 6 0.0 0.0 0.00 0.53 0.00 96 1011.4
20260510044016 6 0.0 0.0 0.00 0.53 0.00 96 1011.3
20260510043516 6 0.0 0.0 0.00 0.53 0.00 96 1011.2
20260510043016 6 0.0 0.0 0.00 0.53 0.00 96 1011.2
20260510042516 6 0.0 0.0 0.00 0.53 0.00 96 1011.0
20260510042016 6 0.0 0.0 0.00 0.53 0.00 96 1011.2
20260510041516 6 0.0 0.0 0.00 0.53 0.00 96 1011.0
20260510041016 6 0.0 0.0 0.00 0.53 0.00 96 1011.1
20260510040516 6 0.0 0.0 0.00 0.53 0.00 96 1011.1
20260510040016 6 0.0 0.0 0.00 0.53 0.53 96 1011.1
20260510035515 6 0.0 0.0 0.00 0.53 0.53 96 1010.9
20260510035015 6 0.0 0.0 0.00 0.53 0.53 96 1010.9
20260510034515 6 0.0 0.0 0.00 0.53 0.53 96 1011.0
20260510034015 7 0.0 0.0 0.00 0.53 0.53 96 1011.0
20260510033516 7 0.0 0.0 0.00 0.53 0.53 96 1010.9
20260510033015 7 0.0 3.2 0.00 0.53 0.53 96 1011.0
20260510032515 7 0.0 0.0 0.00 0.53 0.53 96 1010.9
20260510032017 7 0.0 0.0 0.00 0.53 0.53 96 1010.9
20260510031517 7 0.0 0.0 0.00 0.53 0.53 96 1011.0
20260510031017 7 0.0 0.0 0.00 0.53 0.53 96 1011.0
20260510030517 7 0.0 0.0 0.00 0.53 0.53 96 1011.1
20260510030017 7 0.0 0.0 0.00 0.53 0.53 96 1011.1
20260510025517 7 0.0 0.0 0.00 0.53 0.53 96 1011.1
20260510025017 7 0.0 0.0 0.00 0.53 0.53 96 1011.1
20260510024517 7 0.0 0.0 0.00 0.53 0.53 96 1011.1
20260510024017 8 0.0 0.0 0.00 0.53 0.53 96 1011.2
20260510023517 8 0.0 0.0 0.00 0.53 0.53 96 1011.2
20260510023017 8 0.0 0.0 0.00 0.53 0.53 96 1011.1
20260510022517 8 0.0 0.0 0.00 0.53 0.53 96 1011.2
20260510022017 8 0.0 0.0 0.00 0.53 0.53 96 1011.0
20260510021517 8 0.0 0.0 0.00 0.53 0.53 96 1010.9
20260510021017 8 0.0 0.0 0.00 0.53 0.53 96 1010.9
20260510020517 8 0.0 0.0 0.00 0.53 0.53 96 1011.0
20260510020017 8 0.0 0.0 0.00 0.53 0.53 96 1010.9
20260510015517 8 0.0 0.0 0.00 0.53 0.53 96 1010.8
20260510015017 8 0.0 0.0 0.00 0.53 0.53 96 1010.8
20260510014517 9 0.0 0.0 0.00 0.53 0.53 96 1010.8
20260510014017 9 0.0 0.0 0.00 0.53 0.53 96 1010.8
20260510013516 9 0.0 0.0 0.00 0.53 0.53 96 1010.9
20260510013017 9 0.0 0.0 0.00 0.53 0.53 96 1010.8
20260510012517 9 0.0 0.0 0.00 0.53 0.53 96 1010.8
20260510012022 10 0.0 0.0 0.00 0.53 0.53 96 1010.7
20260510011516 10 0.0 0.0 0.00 0.53 0.53 96 1010.6
20260510011016 10 0.0 0.0 0.00 0.53 0.53 96 1010.6
20260510010517 10 0.0 0.0 0.00 0.53 0.53 96 1010.6
20260510010016 10 0.0 0.0 0.00 0.53 0.53 96 1010.4
20260510005517 10 0.0 0.0 0.00 0.53 0.53 96 1010.4
20260510005016 10 0.0 0.0 0.00 0.53 0.53 95 1010.4
20260510004516 10 0.0 0.0 0.00 0.53 0.53 96 1010.4
20260510004017 10 0.0 0.0 0.00 0.53 0.53 95 1010.2
20260510003516 10 0.0 0.0 0.00 0.53 0.53 95 1010.2
20260510003016 11 0.0 0.0 0.00 0.53 0.53 96 1010.2
20260510002516 11 0.0 3.2 0.00 0.53 0.53 95 1009.9
20260510002016 11 0.0 3.2 0.00 0.53 0.53 95 1009.9
20260510001517 11 0.0 4.8 0.00 0.53 0.53 96 1010.0
20260510001016 11 0.0 3.2 0.00 0.53 0.53 95 1009.9
20260510000517 11 0.0 3.2 0.00 0.53 0.53 95 1009.8
20260510000016 11 0.0 0.0 0.00 0.53 0.53 95 1009.7
20260509235516 11 0.0 0.0 0.00 0.53 0.53 95 1009.8
20260509235016 11 0.0 3.2 0.00 0.53 0.53 95 1009.7
20260509234516 11 0.0 0.0 0.00 0.53 0.53 95 1009.6
20260509234016 12 0.0 0.0 0.00 0.53 0.53 95 1009.6
20260509233516 12 0.0 0.0 0.00 0.53 0.53 95 1009.5
20260509233016 12 0.0 0.0 0.00 0.53 0.53 96 1009.6
20260509232516 12 0.0 4.8 0.00 0.53 0.53 96 1009.6
20260509232016 12 0.0 4.8 0.00 0.53 0.53 95 1009.5
20260509231516 12 0.0 3.2 0.00 0.53 0.53 96 1009.4
20260509231016 12 0.0 3.2 0.00 0.53 0.53 96 1009.6
20260509230517 12 158 1.6 6.4 0.00 0.53 0.53 96 1009.7
20260509230016 12 0.0 3.2 0.00 0.53 0.53 96 1009.7
20260509225516 12 158 1.6 6.4 0.00 0.53 0.53 96 1009.7
20260509225016 12 0.0 3.2 0.00 0.53 0.53 96 1009.7
20260509224516 12 180 1.6 8.0 0.00 0.53 0.53 96 1009.7
20260509224016 12 0.0 1.6 0.00 0.53 0.53 97 1009.7
20260509223516 12 0.0 3.2 0.00 0.53 0.53 96 1009.7
20260509223016 12 0.0 1.6 0.00 0.53 0.53 96 1009.7
20260509222516 12 0.0 4.8 0.00 0.53 0.53 96 1009.7
20260509222016 12 0.0 8.0 0.00 0.53 0.53 96 1009.7
20260509221516 12 0.0 0.0 0.00 0.53 0.53 96 1009.6
20260509221016 12 0.0 0.0 0.00 0.53 0.53 96 1009.5
20260509220516 12 0.0 3.2 0.00 0.53 0.53 96 1009.5
20260509220016 12 0.0 3.2 0.00 0.53 0.53 96 1009.7
20260509215516 12 0.0 3.2 0.03 0.53 0.53 96 1009.7
20260509215016 12 0.0 3.2 0.03 0.53 0.53 96 1009.9
20260509214516 12 0.0 3.2 0.03 0.53 0.53 96 1009.9
20260509214016 12 0.0 3.2 0.03 0.53 0.53 96 1010.0
20260509213516 12 0.0 4.8 0.03 0.53 0.53 96 1010.1
20260509213016 12 180 1.6 6.4 0.03 0.53 0.53 96 1010.1
20260509212516 12 0.0 1.6 0.03 0.53 0.53 96 1009.8
20260509212016 12 0.0 1.6 0.05 0.53 0.53 96 1010.0
20260509211516 12 0.0 4.8 0.05 0.53 0.53 96 1010.1
20260509211016 12 158 1.6 6.4 0.05 0.53 0.53 96 1010.2
20260509210516 12 158 1.6 6.4 0.08 0.53 0.53 97 1010.2
20260509210016 12 0.0 3.2 0.08 0.53 0.53 96 1010.1
20260509205516 12 0.0 1.6 0.05 0.51 0.51 96 1010.1
20260509205016 12 0.0 3.2 0.05 0.51 0.51 96 1010.2
20260509204516 12 0.0 3.2 0.08 0.51 0.51 96 1010.3
20260509204016 12 0.0 1.6 0.08 0.51 0.51 96 1010.4
20260509203516 12 0.0 0.0 0.08 0.51 0.51 96 1010.5
20260509203016 12 0.0 3.2 0.08 0.51 0.51 96 1010.5
20260509202516 12 0.0 1.6 0.08 0.51 0.51 96 1010.6
20260509202016 12 0.0 3.2 0.05 0.48 0.48 96 1010.7
20260509201516 12 0.0 4.8 0.08 0.48 0.48 96 1010.7
20260509201016 12 0.0 1.6 0.08 0.48 0.48 96 1010.8
20260509200516 12 180 1.6 6.4 0.05 0.46 0.46 95 1010.8
20260509200016 12 203 1.6 6.4 0.05 0.46 0.46 95 1010.9
20260509195516 12 158 1.6 6.4 0.08 0.46 0.46 96 1010.9
20260509195016 12 0.0 3.2 0.08 0.46 0.46 95 1011.0
20260509194516 12 180 1.6 8.0 0.08 0.43 0.43 95 1011.1
20260509194016 12 0.0 8.0 0.10 0.43 0.43 95 1011.1
20260509193516 12 0.0 6.4 0.10 0.43 0.43 95 1011.1
20260509193016 12 180 1.6 6.4 0.13 0.43 0.43 95 1011.2
20260509192516 12 158 1.6 6.4 0.13 0.43 0.43 95 1011.2
20260509192017 12 203 1.6 6.4 0.13 0.43 0.43 95 1011.3
20260509191516 12 180 3.2 8.0 0.13 0.41 0.41 95 1011.4
20260509191016 12 180 1.6 6.4 0.13 0.41 0.41 95 1011.4
20260509190516 12 158 4.8 11.3 0.13 0.41 0.41 95 1011.5
20260509190016 12 180 3.2 9.7 0.13 0.41 0.41 95 1011.6
20260509185516 12 203 3.2 9.7 0.13 0.38 0.38 95 1011.8
20260509185016 12 225 1.6 8.0 0.13 0.38 0.38 95 1011.9
20260509184516 12 203 3.2 11.3 0.10 0.36 0.36 95 1011.9
20260509184016 12 203 3.2 11.3 0.08 0.33 0.36 95 1011.9
20260509183516 12 225 4.8 12.9 0.10 0.33 0.33 95 1011.8
20260509183016 12 180 3.2 9.7 0.08 0.30 0.30 95 1011.9
20260509182516 12 203 4.8 14.5 0.08 0.30 0.30 95 1011.7
20260509182016 12 180 4.8 14.5 0.08 0.30 0.30 95 1011.8
20260509181516 12 203 3.2 12.9 0.08 0.28 0.28 95 1011.7
20260509181016 12 225 3.2 6.4 0.08 0.30 0.28 96 1011.7
20260509180516 12 203 3.2 6.4 0.08 0.30 0.28 96 1011.6